JCSAT 2B

Last updated on Jan. 26, 2020, 4:40 a.m. UTC

1 41471U 16028A   20025.59146632 -.00000174  00000-0  00000-0 0  9992
2 41471   0.0177  59.2888 0001769 248.2040 183.7690  1.00270047 13703
UTC
Height (km)
Latitude
Longitude
Inclination
Orbital Period
UTC large
Height (km)
Speed (km/s)
/
Latitude / Longitude
Inclination (degrees)
Orbital Period (minutes)
Azimuth
Elevation
Range (km)
Doppler Factor
iOS Compass Heading
iOS Angle

Next 30 passes for location: Hong Kong

Rise time Rise Azimuth (degrees) Set time Set Azimuth (degrees) Duration Max altitude (degrees)

No matching passes for this satellites